QZS-1 (QZSS/PRN 183)

Last updated on Oct. 27, 2021, 12:03 a.m. UTC

1 37158U 10045A   21298.86197215 -.00000084  00000-0  00000-0 0  9998
2 37158  42.0895 136.6437 0748992 270.2599  79.4807  1.00289027 40735
UTC
Height (km)
Latitude
Longitude
Inclination
Orbital Period
UTC large
Height (km)
Speed (km/s)
/
Latitude / Longitude
Inclination (degrees)
Orbital Period (minutes)
Azimuth
Elevation
Range (km)
Doppler Factor
iOS Compass Heading
iOS Angle